This is the latest recevied weather packets stored in our database for station/object EB5AGF-13. If no packets are shown the sender has not sent any weather packets the latest 10 day(s).
| Time | Temp. | Humidity | Pressure | Rain* | Wind** | Luminosity | Snow |
|---|---|---|---|---|---|---|---|
| 1777884441 | 20° C | 85% | 1010.1 hPa | 0 mm | 2.68 m/s, 190° | 191 W/m² | - |
| 1777884137 | 20° C | 85% | 1010.4 hPa | 0 mm | 3.13 m/s, 200° | 170 W/m² | - |
| 1777883833 | 20° C | 86% | 1010.3 hPa | 0 mm | 0.89 m/s, 142° | 247 W/m² | - |
| 1777883529 | 19.44° C | 87% | 1010.2 hPa | 0 mm | 1.79 m/s, 178° | 268 W/m² | - |
| 1777883225 | 19.44° C | 86% | 1010.1 hPa | 0 mm | 1.79 m/s, 194° | 139 W/m² | - |
| 1777882921 | 20° C | 85% | 1010.3 hPa | 0 mm | 3.13 m/s, 191° | 114 W/m² | - |
| 1777882617 | 20° C | 85% | 1010.2 hPa | 0 mm | 2.24 m/s, 209° | 309 W/m² | - |
| 1777882313 | 20° C | 86% | 1010.3 hPa | 0 mm | 3.13 m/s, 227° | 413 W/m² | - |
| 1777882010 | 20° C | 86% | 1010.2 hPa | 0 mm | 1.79 m/s, 175° | 247 W/m² | - |
| 1777881705 | 19.44° C | 88% | 1010.1 hPa | 0 mm | 0.45 m/s, 249° | 306 W/m² | - |
| 1777881401 | 19.44° C | 88% | 1010.1 hPa | 0 mm | 1.34 m/s, 183° | 226 W/m² | - |
| 1777881097 | 18.89° C | 88% | 1010.3 hPa | 0 mm | 1.34 m/s, 286° | 117 W/m² | - |
| 1777880794 | 18.89° C | 88% | 1010.3 hPa | 0 mm | 3.13 m/s, 221° | 130 W/m² | - |
| 1777880489 | 18.89° C | 88% | 1010.2 hPa | 0 mm | 2.24 m/s, 214° | 67 W/m² | - |
| 1777880185 | 18.89° C | 89% | 1010.4 hPa | 0 mm | 1.79 m/s, 166° | 110 W/m² | - |
| 1777879881 | 18.89° C | 89% | 1010.4 hPa | 0 mm | 0.89 m/s, 231° | 80 W/m² | - |
| 1777879578 | 18.89° C | 89% | 1010.3 hPa | 0 mm | 2.68 m/s, 203° | 42 W/m² | - |
| 1777879273 | 18.89° C | 89% | 1010.4 hPa | 0 mm | 1.79 m/s, 224° | 41 W/m² | - |
| 1777878969 | 18.89° C | 89% | 1009.9 hPa | 0 mm | 1.79 m/s, 119° | 64 W/m² | - |
| 1777878665 | 18.89° C | 89% | 1010.2 hPa | 0 mm | 2.68 m/s, 180° | 50 W/m² | - |
| 1777878361 | 18.89° C | 89% | 1009.9 hPa | 0 mm | 2.24 m/s, 333° | 57 W/m² | - |
| 1777878057 | 18.89° C | 89% | 1010.2 hPa | 0 mm | 0.89 m/s, 207° | 79 W/m² | - |
| 1777877753 | 18.89° C | 88% | 1010 hPa | 0 mm | 1.79 m/s, 178° | 66 W/m² | - |
| 1777877449 | 18.89° C | 88% | 1010 hPa | 0 mm | 3.13 m/s, 221° | 54 W/m² | - |
| 1777877145 | 18.89° C | 88% | 1010.1 hPa | 0 mm | 1.34 m/s, 212° | 48 W/m² | - |
* Rain latest hour (hover to see other rain measurements)
** Current wind speed in m/s (hover to see current wind gust speed)